Climatologie pour Saint-Brevin les Pins
Jour • Résumé pour janvier 8, 2017 Système :  Métrique    Anglais   Mixte
« - 1 jour
+ 1 jour »
Jour Semaine Mois Année Personnalisé
  Maximum : Minimum : Moyenne :
Température sous abri : 11.1 °C 3.9 °C 7.3 °C
Point de rosée : 9.3 °C 1.7 °C 6.4 °C
Humidité : 98 % 85 % 95 %
Vitesse du vent : 8.0 km/h 0.0 km/h 0.6 km/h
Rafale : 9.7 km/h - -
Direction :- - WNW
Pression : 1035.4 hPa 1032.7 hPa -
Précipitations : 0.5 mm    
Historical Graphs
 
 
Tableau de données pour janvier 8, 2017
Heure Tempé Pt rosée Pression Vent Vitesse Rafale Humidité Taux pluie (/hr) Soleil
00:00 3.9 °C 1.7 °C 1035.4 hPa Calm   1.6 km/h 85 % 0.0 mm 0 W/m2
00:05 3.9 °C 1.8 °C 1035.4 hPa Calm   1.6 km/h 86 % 0.0 mm 0 W/m2
00:10 3.9 °C 2.0 °C 1035.4 hPa Calm   1.6 km/h 87 % 0.0 mm 0 W/m2
00:15 4.0 °C 1.9 °C 1035.4 hPa Calm   1.6 km/h 86 % 0.0 mm 0 W/m2
00:20 4.2 °C 2.0 °C 1035.4 hPa Calm   1.6 km/h 86 % 0.0 mm 0 W/m2
00:25 4.2 °C 2.2 °C 1035.4 hPa Calm   1.6 km/h 87 % 0.0 mm 0 W/m2
00:30 4.2 °C 2.2 °C 1035.4 hPa Calm   3.2 km/h 87 % 0.0 mm 0 W/m2
00:35 4.3 °C 2.4 °C 1035.4 hPa Calm   3.2 km/h 87 % 0.0 mm 0 W/m2
00:40 4.4 °C 2.4 °C 1035.1 hPa Calm   3.2 km/h 87 % 0.0 mm 0 W/m2
00:45 4.5 °C 2.4 °C 1035.1 hPa WNW 1.6 km/h 3.2 km/h 86 % 0.0 mm 0 W/m2
00:50 4.6 °C 2.3 °C 1035.1 hPa Calm   3.2 km/h 85 % 0.0 mm 0 W/m2
00:55 4.5 °C 2.2 °C 1035.1 hPa Calm   4.8 km/h 85 % 0.0 mm 0 W/m2
01:00 4.4 °C 2.1 °C 1035.1 hPa WNW 1.6 km/h 4.8 km/h 85 % 0.0 mm 0 W/m2
01:05 4.4 °C 2.1 °C 1035.1 hPa Calm   6.4 km/h 85 % 0.0 mm 0 W/m2
01:10 4.7 °C 2.7 °C 1034.8 hPa WNW 3.2 km/h 6.4 km/h 87 % 0.0 mm 0 W/m2
01:15 4.6 °C 2.4 °C 1035.1 hPa Calm   4.8 km/h 86 % 0.0 mm 0 W/m2
01:20 4.5 °C 2.5 °C 1035.1 hPa Calm   4.8 km/h 87 % 0.0 mm 0 W/m2
01:25 4.6 °C 2.7 °C 1035.1 hPa Calm   4.8 km/h 88 % 0.0 mm 0 W/m2
01:35 4.7 °C 3.1 °C 1035.1 hPa Calm   4.8 km/h 89 % 0.0 mm 0 W/m2
01:40 4.9 °C 3.2 °C 1035.1 hPa Calm   4.8 km/h 89 % 0.0 mm 0 W/m2
01:45 5.0 °C 3.3 °C 1034.8 hPa Calm   1.6 km/h 89 % 0.0 mm 0 W/m2
01:50 5.1 °C 3.6 °C 1034.8 hPa Calm     90 % 0.0 mm 0 W/m2
01:55 5.1 °C 3.6 °C 1034.8 hPa Calm     90 % 0.0 mm 0 W/m2
02:00 5.1 °C 3.6 °C 1034.8 hPa Calm     90 % 0.0 mm 0 W/m2
02:05 5.1 °C 3.6 °C 1034.8 hPa Calm   4.8 km/h 90 % 0.0 mm 0 W/m2
02:10 5.1 °C 3.6 °C 1034.8 hPa Calm   4.8 km/h 90 % 0.0 mm 0 W/m2
02:20 5.2 °C 3.7 °C 1034.8 hPa Calm   3.2 km/h 90 % 0.0 mm 0 W/m2
02:25 5.3 °C 3.8 °C 1034.8 hPa Calm   4.8 km/h 90 % 0.0 mm 0 W/m2
02:30 5.4 °C 3.7 °C 1034.4 hPa Calm   4.8 km/h 89 % 0.0 mm 0 W/m2
02:35 5.4 °C 3.7 °C 1034.4 hPa Calm   3.2 km/h 89 % 0.0 mm 0 W/m2
02:40 5.4 °C 3.7 °C 1034.4 hPa Calm   3.2 km/h 89 % 0.0 mm 0 W/m2
02:45 5.4 °C 3.9 °C 1034.8 hPa Calm   1.6 km/h 90 % 0.0 mm 0 W/m2
02:50 5.4 °C 3.9 °C 1034.8 hPa Calm   3.2 km/h 90 % 0.0 mm 0 W/m2
02:55 5.5 °C 3.8 °C 1034.8 hPa Calm   3.2 km/h 89 % 0.0 mm 0 W/m2
03:00 5.5 °C 3.8 °C 1034.8 hPa Calm   3.2 km/h 89 % 0.0 mm 0 W/m2
03:05 5.6 °C 3.9 °C 1034.8 hPa Calm   3.2 km/h 89 % 0.0 mm 0 W/m2
03:10 5.6 °C 3.9 °C 1034.8 hPa Calm   1.6 km/h 89 % 0.0 mm 0 W/m2
03:15 5.6 °C 3.9 °C 1034.8 hPa Calm   3.2 km/h 89 % 0.0 mm 0 W/m2
03:20 5.6 °C 4.1 °C 1034.8 hPa Calm   3.2 km/h 90 % 0.0 mm 0 W/m2
03:25 5.6 °C 4.0 °C 1034.8 hPa NW 1.6 km/h 3.2 km/h 90 % 0.0 mm 0 W/m2
03:30 5.6 °C 4.2 °C 1034.8 hPa Calm   3.2 km/h 91 % 0.0 mm 0 W/m2
03:35 5.4 °C 4.2 °C 1034.8 hPa Calm   3.2 km/h 92 % 0.0 mm 0 W/m2
03:45 5.4 °C 4.4 °C 1034.8 hPa WNW 1.6 km/h 8.0 km/h 93 % 0.0 mm 0 W/m2
03:50 5.5 °C 4.6 °C 1034.8 hPa WNW 3.2 km/h 8.0 km/h 94 % 0.0 mm 0 W/m2
03:55 5.6 °C 4.8 °C 1034.8 hPa WNW 1.6 km/h 6.4 km/h 95 % 0.0 mm 0 W/m2
04:00 5.6 °C 4.9 °C 1034.4 hPa WNW 1.6 km/h 6.4 km/h 95 % 0.0 mm 0 W/m2
04:05 5.7 °C 4.9 °C 1034.4 hPa Calm   4.8 km/h 95 % 0.0 mm 0 W/m2
04:10 5.7 °C 4.9 °C 1034.4 hPa Calm   4.8 km/h 95 % 0.0 mm 0 W/m2
04:15 5.7 °C 5.0 °C 1034.4 hPa WNW 4.8 km/h 4.8 km/h 95 % 0.0 mm 0 W/m2
04:20 5.7 °C 5.1 °C 1034.4 hPa WNW 3.2 km/h 6.4 km/h 96 % 0.0 mm 0 W/m2
04:25 5.7 °C 5.1 °C 1034.4 hPa Calm   6.4 km/h 96 % 0.0 mm 0 W/m2
04:30 5.7 °C 5.1 °C 1034.4 hPa Calm   3.2 km/h 96 % 0.0 mm 0 W/m2
04:35 5.7 °C 5.1 °C 1034.4 hPa Calm     96 % 0.0 mm 0 W/m2
04:40 5.7 °C 5.1 °C 1034.4 hPa Calm   1.6 km/h 96 % 0.0 mm 0 W/m2
04:45 5.7 °C 5.1 °C 1034.4 hPa Calm   4.8 km/h 96 % 0.0 mm 0 W/m2
04:50 5.7 °C 5.1 °C 1034.4 hPa Calm   4.8 km/h 96 % 0.0 mm 0 W/m2
04:55 5.7 °C 5.3 °C 1034.1 hPa Calm   3.2 km/h 97 % 0.0 mm 0 W/m2
05:00 5.8 °C 5.3 °C 1034.1 hPa Calm   3.2 km/h 97 % 0.0 mm 0 W/m2
05:05 5.8 °C 5.2 °C 1034.1 hPa Calm   1.6 km/h 96 % 0.0 mm 0 W/m2
05:15 5.8 °C 5.4 °C 1034.1 hPa Calm     97 % 0.0 mm 0 W/m2
05:20 5.8 °C 5.4 °C 1034.1 hPa Calm     97 % 0.0 mm 0 W/m2
05:25 5.9 °C 5.4 °C 1034.1 hPa Calm     97 % 0.0 mm 0 W/m2
05:30 5.8 °C 5.4 °C 1034.1 hPa Calm     97 % 0.0 mm 0 W/m2
05:35 5.8 °C 5.4 °C 1034.1 hPa Calm     97 % 0.0 mm 0 W/m2
05:40 5.9 °C 5.4 °C 1034.1 hPa Calm     97 % 0.0 mm 0 W/m2
05:45 5.9 °C 5.4 °C 1034.1 hPa Calm     97 % 0.0 mm 0 W/m2
05:50 5.9 °C 5.4 °C 1034.1 hPa Calm     97 % 0.0 mm 0 W/m2
05:55 5.9 °C 5.5 °C 1034.1 hPa Calm     97 % 0.0 mm 0 W/m2
06:00 5.9 °C 5.4 °C 1034.1 hPa Calm     97 % 0.0 mm 0 W/m2
06:05 5.8 °C 5.4 °C 1034.1 hPa Calm     97 % 0.0 mm 0 W/m2
06:10 5.8 °C 5.4 °C 1034.1 hPa Calm     97 % 0.0 mm 0 W/m2
06:15 5.8 °C 5.3 °C 1034.1 hPa Calm     97 % 0.0 mm 0 W/m2
06:20 5.7 °C 5.2 °C 1034.1 hPa Calm     97 % 0.0 mm 0 W/m2
06:25 5.7 °C 5.2 °C 1034.1 hPa Calm     97 % 0.0 mm 0 W/m2
06:30 5.7 °C 5.3 °C 1034.1 hPa Calm     97 % 0.0 mm 0 W/m2
06:35 5.8 °C 5.3 °C 1034.1 hPa Calm     97 % 0.0 mm 0 W/m2
06:45 5.8 °C 5.3 °C 1034.1 hPa Calm     97 % 0.0 mm 0 W/m2
06:50 5.8 °C 5.3 °C 1034.1 hPa Calm     97 % 0.0 mm 0 W/m2
06:55 5.7 °C 5.3 °C 1034.1 hPa Calm     97 % 0.0 mm 0 W/m2
07:00 5.7 °C 5.3 °C 1034.1 hPa Calm     97 % 0.0 mm 0 W/m2
07:05 5.8 °C 5.3 °C 1034.1 hPa Calm     97 % 0.0 mm 0 W/m2
07:10 5.8 °C 5.4 °C 1034.1 hPa Calm     97 % 0.0 mm 0 W/m2
07:15 5.8 °C 5.4 °C 1034.1 hPa Calm     97 % 0.0 mm 0 W/m2
07:20 5.9 °C 5.4 °C 1034.1 hPa Calm     97 % 0.0 mm 0 W/m2
07:25 5.9 °C 5.5 °C 1034.1 hPa Calm     97 % 0.0 mm 0 W/m2
07:30 5.9 °C 5.5 °C 1034.1 hPa Calm     97 % 0.0 mm 0 W/m2
07:35 5.9 °C 5.4 °C 1034.1 hPa Calm     97 % 0.0 mm 0 W/m2
07:40 5.8 °C 5.4 °C 1034.1 hPa Calm     97 % 0.0 mm 0 W/m2
07:45 5.8 °C 5.4 °C 1034.1 hPa Calm     97 % 0.0 mm 0 W/m2
07:50 5.8 °C 5.4 °C 1034.1 hPa Calm     97 % 0.0 mm 0 W/m2
07:55 5.8 °C 5.4 °C 1034.4 hPa Calm     97 % 0.0 mm 0 W/m2
08:00 5.8 °C 5.4 °C 1034.4 hPa Calm     97 % 0.0 mm 0 W/m2
08:05 5.8 °C 5.4 °C 1034.4 hPa Calm   1.6 km/h 97 % 0.0 mm 0 W/m2
08:15 5.9 °C 5.4 °C 1034.4 hPa Calm   1.6 km/h 97 % 0.0 mm 0 W/m2
08:20 5.9 °C 5.6 °C 1034.4 hPa Calm   1.6 km/h 98 % 0.0 mm 0 W/m2
08:25 5.9 °C 5.7 °C 1034.4 hPa Calm   1.6 km/h 98 % 0.0 mm 0 W/m2
08:30 5.9 °C 5.7 °C 1034.4 hPa Calm     98 % 0.0 mm 0 W/m2
08:35 5.9 °C 5.6 °C 1034.4 hPa Calm     98 % 0.0 mm 0 W/m2
08:40 5.8 °C 5.4 °C 1034.4 hPa Calm     97 % 0.0 mm 0 W/m2
08:45 5.9 °C 5.5 °C 1034.4 hPa Calm     97 % 0.0 mm 0 W/m2
08:50 5.9 °C 5.5 °C 1034.4 hPa Calm     97 % 0.0 mm 0 W/m2
08:55 6.0 °C 5.7 °C 1034.4 hPa Calm     98 % 0.0 mm 0 W/m2
09:00 6.0 °C 5.7 °C 1034.8 hPa Calm     98 % 0.0 mm 0 W/m2
09:05 6.0 °C 5.7 °C 1034.4 hPa Calm     98 % 0.0 mm 0 W/m2
09:10 6.0 °C 5.7 °C 1034.4 hPa Calm     98 % 0.0 mm 7 W/m2
09:15 6.0 °C 5.7 °C 1034.8 hPa Calm     98 % 0.0 mm 7 W/m2
09:20 6.1 °C 5.8 °C 1034.8 hPa Calm     98 % 0.0 mm 11 W/m2
09:25 6.1 °C 5.8 °C 1034.8 hPa Calm     98 % 0.0 mm 12 W/m2
09:30 6.1 °C 5.8 °C 1034.8 hPa Calm     98 % 0.0 mm 16 W/m2
09:35 6.2 °C 5.7 °C 1034.8 hPa Calm     97 % 0.0 mm 16 W/m2
09:40 6.2 °C 5.9 °C 1034.8 hPa Calm     98 % 0.0 mm 19 W/m2
09:45 6.3 °C 6.0 °C 1034.8 hPa Calm     98 % 0.0 mm 19 W/m2
09:50 6.4 °C 6.1 °C 1034.8 hPa Calm     98 % 0.0 mm 23 W/m2
09:55 6.4 °C 6.2 °C 1034.8 hPa Calm     98 % 0.0 mm 32 W/m2
10:00 6.5 °C 6.2 °C 1034.8 hPa Calm     98 % 0.0 mm 33 W/m2
10:05 6.6 °C 6.3 °C 1034.8 hPa Calm     98 % 0.0 mm 39 W/m2
10:10 6.6 °C 6.3 °C 1034.8 hPa Calm     98 % 0.0 mm 39 W/m2
10:15 6.7 °C 6.4 °C 1034.8 hPa Calm     98 % 0.0 mm 47 W/m2
10:20 6.8 °C 6.5 °C 1035.1 hPa Calm     98 % 0.0 mm 51 W/m2
10:25 6.9 °C 6.7 °C 1035.1 hPa Calm     98 % 0.0 mm 42 W/m2
10:30 6.9 °C 6.5 °C 1035.1 hPa Calm   1.6 km/h 97 % 0.0 mm 39 W/m2
10:35 7.0 °C 6.6 °C 1035.1 hPa Calm   1.6 km/h 97 % 0.0 mm 44 W/m2
10:40 7.1 °C 6.6 °C 1035.1 hPa Calm   1.6 km/h 97 % 0.0 mm 46 W/m2
10:45 7.1 °C 6.7 °C 1035.1 hPa Calm   1.6 km/h 97 % 0.0 mm 84 W/m2
10:50 7.3 °C 6.8 °C 1035.1 hPa Calm   1.6 km/h 97 % 0.0 mm 77 W/m2
10:55 7.4 °C 7.0 °C 1035.1 hPa WNW 1.6 km/h 1.6 km/h 97 % 0.0 mm 76 W/m2
11:00 7.6 °C 7.2 °C 1035.1 hPa Calm   1.6 km/h 97 % 0.0 mm 83 W/m2
11:05 7.7 °C 7.3 °C 1035.1 hPa Calm   1.6 km/h 97 % 0.0 mm 91 W/m2
11:10 7.9 °C 7.3 °C 1035.1 hPa Calm   1.6 km/h 96 % 0.0 mm 84 W/m2
11:15 8.0 °C 7.4 °C 1035.1 hPa Calm   4.8 km/h 96 % 0.0 mm 81 W/m2
11:20 8.1 °C 7.5 °C 1035.1 hPa Calm   4.8 km/h 96 % 0.0 mm 95 W/m2
11:25 8.1 °C 7.4 °C 1035.1 hPa WNW 1.6 km/h 4.8 km/h 95 % 0.0 mm 114 W/m2
11:30 8.2 °C 7.4 °C 1035.1 hPa WNW 1.6 km/h 4.8 km/h 95 % 0.0 mm 134 W/m2
11:35 8.3 °C 7.5 °C 1035.1 hPa Calm   4.8 km/h 95 % 0.0 mm 139 W/m2
11:40 8.5 °C 7.6 °C 1035.1 hPa Calm   4.8 km/h 94 % 0.0 mm 153 W/m2
11:45 8.7 °C 7.8 °C 1035.1 hPa WNW 1.6 km/h 6.4 km/h 94 % 0.0 mm 197 W/m2
11:50 8.8 °C 7.7 °C 1035.1 hPa Calm   6.4 km/h 93 % 0.0 mm 158 W/m2
11:55 9.1 °C 8.0 °C 1035.1 hPa Calm   3.2 km/h 93 % 0.0 mm 192 W/m2
12:00 9.3 °C 8.0 °C 1035.1 hPa NNW 6.4 km/h 8.0 km/h 92 % 0.0 mm 188 W/m2
12:05 9.2 °C 8.0 °C 1034.8 hPa NW 3.2 km/h 8.0 km/h 92 % 0.0 mm 276 W/m2
12:10 9.0 °C 7.6 °C 1034.8 hPa West 3.2 km/h 8.0 km/h 91 % 0.0 mm 225 W/m2
12:15 9.1 °C 7.7 °C 1034.8 hPa WNW 3.2 km/h 6.4 km/h 91 % 0.0 mm 332 W/m2
12:20 9.6 °C 8.2 °C 1035.1 hPa West 4.8 km/h 6.4 km/h 91 % 0.0 mm 230 W/m2
12:25 9.7 °C 8.2 °C 1034.8 hPa WNW 8.0 km/h 8.0 km/h 90 % 0.0 mm 141 W/m2
12:30 9.4 °C 7.9 °C 1034.8 hPa WNW 3.2 km/h 8.0 km/h 90 % 0.0 mm 257 W/m2
12:35 9.8 °C 8.2 °C 1034.8 hPa WNW 3.2 km/h 8.0 km/h 90 % 0.0 mm 162 W/m2
12:40 9.8 °C 8.4 °C 1034.8 hPa WNW 3.2 km/h 4.8 km/h 91 % 0.0 mm 149 W/m2
12:45 9.8 °C 8.2 °C 1034.8 hPa Calm   6.4 km/h 90 % 0.0 mm 149 W/m2
12:50 9.8 °C 8.2 °C 1034.4 hPa WNW 3.2 km/h 6.4 km/h 90 % 0.0 mm 137 W/m2
12:55 9.8 °C 8.2 °C 1034.4 hPa WNW 3.2 km/h 4.8 km/h 90 % 0.0 mm 130 W/m2
13:00 9.7 °C 8.2 °C 1034.4 hPa WNW 3.2 km/h 6.4 km/h 90 % 0.0 mm 132 W/m2
13:05 9.8 °C 8.2 °C 1034.4 hPa Calm   6.4 km/h 90 % 0.0 mm 135 W/m2
13:10 9.9 °C 8.3 °C 1034.4 hPa WNW 1.6 km/h 4.8 km/h 90 % 0.0 mm 130 W/m2
13:15 9.9 °C 8.3 °C 1034.4 hPa West 3.2 km/h 6.4 km/h 90 % 0.0 mm 128 W/m2
13:25 9.8 °C 8.3 °C 1034.4 hPa Calm   4.8 km/h 90 % 0.0 mm 120 W/m2
13:35 9.9 °C 8.4 °C 1034.1 hPa West 3.2 km/h 4.8 km/h 90 % 0.0 mm 142 W/m2
13:40 9.9 °C 8.3 °C 1034.1 hPa West 1.6 km/h 4.8 km/h 90 % 0.0 mm 144 W/m2
13:45 10.2 °C 8.8 °C 1034.1 hPa Calm   4.8 km/h 91 % 0.0 mm 172 W/m2
13:55 10.7 °C 9.1 °C 1034.1 hPa West 3.2 km/h 4.8 km/h 90 % 0.0 mm 148 W/m2
14:00 10.8 °C 9.2 °C 1034.1 hPa Calm   6.4 km/h 90 % 0.0 mm 186 W/m2
14:05 11.0 °C 9.3 °C 1033.7 hPa NNW 3.2 km/h 6.4 km/h 89 % 0.0 mm 174 W/m2
14:10 11.1 °C 9.3 °C 1033.7 hPa Calm   6.4 km/h 89 % 0.0 mm 151 W/m2
15:30 10.7 °C 9.0 °C 1033.4 hPa Calm   1.6 km/h 89 % 0.0 mm 74 W/m2
15:45 10.8 °C 9.2 °C 1033.4 hPa Calm   1.6 km/h 90 % 0.0 mm 77 W/m2
15:55 10.7 °C 9.0 °C 1033.4 hPa NW 1.6 km/h 4.8 km/h 89 % 0.0 mm 77 W/m2
16:00 10.8 °C 9.2 °C 1033.4 hPa NW 4.8 km/h 4.8 km/h 90 % 0.0 mm 76 W/m2
16:05 10.6 °C 9.0 °C 1033.4 hPa NW 1.6 km/h 4.8 km/h 90 % 0.0 mm 69 W/m2
16:10 10.6 °C 9.0 °C 1033.4 hPa Calm   4.8 km/h 90 % 0.0 mm 56 W/m2
16:15 10.4 °C 8.8 °C 1033.4 hPa Calm   3.2 km/h 90 % 0.0 mm 53 W/m2
16:20 10.3 °C 8.9 °C 1033.4 hPa Calm   1.6 km/h 91 % 0.0 mm 49 W/m2
16:25 10.3 °C 8.9 °C 1033.4 hPa Calm   1.6 km/h 91 % 0.0 mm 40 W/m2
16:30 10.2 °C 8.8 °C 1033.4 hPa Calm   1.6 km/h 91 % 0.0 mm 37 W/m2
16:35 10.2 °C 8.8 °C 1033.4 hPa Calm   1.6 km/h 91 % 0.0 mm 35 W/m2
16:45 10.1 °C 8.8 °C 1033.4 hPa NW 1.6 km/h 4.8 km/h 92 % 0.0 mm 28 W/m2
16:50 10.0 °C 8.8 °C 1033.4 hPa Calm   4.8 km/h 92 % 0.0 mm 25 W/m2
16:55 9.9 °C 8.5 °C 1033.4 hPa NW 1.6 km/h 4.8 km/h 91 % 0.0 mm 18 W/m2
17:00 9.8 °C 8.6 °C 1033.4 hPa Calm   3.2 km/h 92 % 0.0 mm 14 W/m2
17:05 9.7 °C 8.5 °C 1033.4 hPa Calm   3.2 km/h 92 % 0.0 mm 12 W/m2
17:10 9.6 °C 8.4 °C 1033.4 hPa NW 1.6 km/h 1.6 km/h 92 % 0.0 mm 11 W/m2
17:15 9.6 °C 8.5 °C 1033.4 hPa Calm   3.2 km/h 93 % 0.0 mm 7 W/m2
17:20 9.4 °C 8.4 °C 1033.4 hPa NW 1.6 km/h 3.2 km/h 93 % 0.0 mm 5 W/m2
17:25 9.3 °C 8.4 °C 1033.4 hPa NW 1.6 km/h 1.6 km/h 94 % 0.3 mm 5 W/m2
17:30 9.2 °C 8.3 °C 1033.4 hPa Calm   1.6 km/h 94 % 0.3 mm 0 W/m2
17:40 9.1 °C 8.3 °C 1033.4 hPa Calm     95 % 0.3 mm 0 W/m2
17:45 8.9 °C 8.2 °C 1033.4 hPa Calm     95 % 0.3 mm 0 W/m2
17:50 8.9 °C 8.3 °C 1033.4 hPa Calm     96 % 0.3 mm 0 W/m2
17:55 8.9 °C 8.3 °C 1033.4 hPa Calm     96 % 0.3 mm 0 W/m2
18:00 8.8 °C 8.2 °C 1033.4 hPa Calm     96 % 0.3 mm 0 W/m2
18:05 8.8 °C 8.2 °C 1033.4 hPa Calm     96 % 0.3 mm 0 W/m2
18:10 8.8 °C 8.2 °C 1033.4 hPa Calm     96 % 0.3 mm 0 W/m2
18:20 8.6 °C 8.0 °C 1033.4 hPa Calm     96 % 0.3 mm 0 W/m2
18:30 8.6 °C 8.1 °C 1033.4 hPa Calm     97 % 0.0 mm 0 W/m2
18:35 8.5 °C 8.1 °C 1033.4 hPa Calm     97 % 0.0 mm 0 W/m2
18:40 8.4 °C 8.0 °C 1033.4 hPa Calm     97 % 0.0 mm 0 W/m2
18:45 8.3 °C 7.9 °C 1033.4 hPa Calm     97 % 0.0 mm 0 W/m2
18:50 8.2 °C 7.8 °C 1033.4 hPa Calm     97 % 0.0 mm 0 W/m2
18:55 8.1 °C 7.6 °C 1033.4 hPa Calm     97 % 0.0 mm 0 W/m2
19:00 8.2 °C 7.7 °C 1033.4 hPa Calm     97 % 0.0 mm 0 W/m2
19:05 8.2 °C 7.7 °C 1033.4 hPa Calm     97 % 0.0 mm 0 W/m2
19:10 8.1 °C 7.7 °C 1033.4 hPa Calm     97 % 0.0 mm 0 W/m2
19:15 8.2 °C 7.7 °C 1033.1 hPa Calm     97 % 0.0 mm 0 W/m2
19:25 8.2 °C 7.9 °C 1033.1 hPa Calm     98 % 0.0 mm 0 W/m2
19:30 8.3 °C 8.0 °C 1033.1 hPa Calm   1.6 km/h 98 % 0.0 mm 0 W/m2
19:35 8.2 °C 7.7 °C 1033.1 hPa Calm   1.6 km/h 97 % 0.0 mm 0 W/m2
19:40 8.2 °C 7.7 °C 1033.1 hPa Calm     97 % 0.0 mm 0 W/m2
19:45 7.9 °C 7.5 °C 1033.1 hPa Calm     97 % 0.0 mm 0 W/m2
19:50 7.8 °C 7.3 °C 1033.1 hPa Calm     97 % 0.0 mm 0 W/m2
19:55 7.8 °C 7.3 °C 1033.1 hPa Calm     97 % 0.0 mm 0 W/m2
20:00 7.9 °C 7.6 °C 1032.7 hPa Calm     98 % 0.0 mm 0 W/m2
20:05 8.0 °C 7.7 °C 1032.7 hPa Calm     98 % 0.0 mm 0 W/m2
20:10 8.0 °C 7.7 °C 1032.7 hPa Calm   3.2 km/h 98 % 0.3 mm 0 W/m2
20:15 7.9 °C 7.6 °C 1032.7 hPa NW 3.2 km/h 3.2 km/h 98 % 0.3 mm 0 W/m2
20:20 7.8 °C 7.4 °C 1032.7 hPa West 3.2 km/h 4.8 km/h 97 % 0.3 mm 0 W/m2
20:25 7.9 °C 7.6 °C 1033.1 hPa West 3.2 km/h 6.4 km/h 98 % 0.3 mm 0 W/m2
20:30 8.1 °C 7.8 °C 1033.1 hPa Calm   6.4 km/h 98 % 0.3 mm 0 W/m2
20:35 8.1 °C 7.8 °C 1033.1 hPa Calm   4.8 km/h 98 % 0.3 mm 0 W/m2
20:40 8.0 °C 7.7 °C 1033.1 hPa Calm   1.6 km/h 98 % 0.3 mm 0 W/m2
20:45 8.1 °C 7.8 °C 1033.1 hPa Calm   1.6 km/h 98 % 0.3 mm 0 W/m2
20:50 8.1 °C 7.8 °C 1033.1 hPa Calm   1.6 km/h 98 % 0.3 mm 0 W/m2
20:55 8.1 °C 7.8 °C 1033.1 hPa Calm   1.6 km/h 98 % 0.3 mm 0 W/m2
21:00 8.2 °C 7.9 °C 1033.1 hPa Calm   1.6 km/h 98 % 0.3 mm 0 W/m2
21:05 8.2 °C 7.9 °C 1033.1 hPa Calm   1.6 km/h 98 % 0.3 mm 0 W/m2
21:10 8.2 °C 7.9 °C 1032.7 hPa West 1.6 km/h 1.6 km/h 98 % 0.0 mm 0 W/m2
21:15 8.2 °C 7.9 °C 1032.7 hPa Calm   1.6 km/h 98 % 0.0 mm 0 W/m2
21:20 8.3 °C 8.0 °C 1032.7 hPa West 1.6 km/h 4.8 km/h 98 % 0.0 mm 0 W/m2
21:25 8.3 °C 8.0 °C 1032.7 hPa West 1.6 km/h 4.8 km/h 98 % 0.0 mm 0 W/m2
21:30 8.2 °C 7.9 °C 1033.1 hPa Calm   4.8 km/h 98 % 0.0 mm 0 W/m2
21:35 8.2 °C 7.9 °C 1033.1 hPa Calm   1.6 km/h 98 % 0.0 mm 0 W/m2
21:40 8.1 °C 7.8 °C 1033.1 hPa Calm   1.6 km/h 98 % 0.0 mm 0 W/m2
21:45 8.2 °C 7.9 °C 1032.7 hPa Calm   1.6 km/h 98 % 0.0 mm 0 W/m2
21:50 8.2 °C 7.9 °C 1033.1 hPa Calm     98 % 0.0 mm 0 W/m2
22:00 8.1 °C 7.8 °C 1033.1 hPa West 3.2 km/h 6.4 km/h 98 % 0.0 mm 0 W/m2
22:05 8.2 °C 7.9 °C 1033.1 hPa WNW 1.6 km/h 9.7 km/h 98 % 0.0 mm 0 W/m2
22:10 8.3 °C 8.0 °C 1033.1 hPa WNW 1.6 km/h 9.7 km/h 98 % 0.0 mm 0 W/m2
22:15 8.3 °C 8.0 °C 1033.1 hPa Calm   4.8 km/h 98 % 0.0 mm 0 W/m2
22:20 8.2 °C 7.9 °C 1033.1 hPa Calm   6.4 km/h 98 % 0.0 mm 0 W/m2
22:25 8.2 °C 7.9 °C 1033.1 hPa WNW 1.6 km/h 6.4 km/h 98 % 0.0 mm 0 W/m2
22:30 8.3 °C 8.0 °C 1033.1 hPa Calm   4.8 km/h 98 % 0.0 mm 0 W/m2
22:35 8.3 °C 8.0 °C 1033.1 hPa Calm   4.8 km/h 98 % 0.0 mm 0 W/m2
22:40 8.3 °C 8.0 °C 1033.1 hPa Calm   3.2 km/h 98 % 0.0 mm 0 W/m2
22:45 8.3 °C 8.0 °C 1033.1 hPa Calm   4.8 km/h 98 % 0.0 mm 0 W/m2
22:55 8.3 °C 8.0 °C 1032.7 hPa Calm   3.2 km/h 98 % 0.0 mm 0 W/m2
23:00 8.3 °C 8.0 °C 1033.1 hPa NW 3.2 km/h 6.4 km/h 98 % 0.0 mm 0 W/m2
23:05 8.3 °C 8.0 °C 1033.1 hPa WNW 1.6 km/h 6.4 km/h 98 % 0.0 mm 0 W/m2
23:10 8.3 °C 8.0 °C 1033.1 hPa WNW 1.6 km/h 6.4 km/h 98 % 0.0 mm 0 W/m2
23:15 8.3 °C 8.0 °C 1032.7 hPa NNW 3.2 km/h 8.0 km/h 98 % 0.0 mm 0 W/m2
23:20 8.3 °C 8.0 °C 1032.7 hPa WNW 4.8 km/h 9.7 km/h 98 % 0.0 mm 0 W/m2
23:25 8.3 °C 8.0 °C 1032.7 hPa NNW 3.2 km/h 9.7 km/h 98 % 0.0 mm 0 W/m2
23:40 8.1 °C 7.8 °C 1032.7 hPa NW 4.8 km/h 8.0 km/h 98 % 0.0 mm 0 W/m2
23:45 8.1 °C 7.8 °C 1033.1 hPa NW 1.6 km/h 8.0 km/h 98 % 0.0 mm 0 W/m2
23:50 8.2 °C 7.9 °C 1032.7 hPa NW 1.6 km/h 6.4 km/h 98 % 0.0 mm 0 W/m2
23:55 8.2 °C 7.9 °C 1032.7 hPa NW 1.6 km/h 4.8 km/h 98 % 0.0 mm 0 W/m2
Avec l'autorisation de Weather Underground - 1.5 mb